Wind_Speed
32 33 35 37 40 48 53 54 53 51 50 49 47 47 47 48 50 51 51 51 50 50 49 48 47 46 44 42 40 39 37 36 35 35 35 36 36 36 35 34 33 31 30 29 27 25 24 24 23 22 22 21 21 21 21 21 20 18 17 16 16 16 15
28 32 35 36 40 47 52 54 54 53 51 50 48 47 48 49 50 50 51 51 51 50 50 49 48 48 46 44 42 41 39 38 37 36 35 35 34 34 33 33 33 32 30 29 28 27 25 24 23 23 22 22 21 21 22 21 20 19 18 17 17 17 16
27 31 34 37 42 49 53 55 55 55 54 52 50 49 49 49 48 48 49 50 50 50 51 51 50 49 47 46 44 42 40 39 38 37 36 35 33 33 32 32 32 31 30 29 28 27 26 25 24 23 23 22 22 22 22 22 21 20 18 17 18 18 17
29 32 34 38 44 49 52 53 54 55 56 55 53 52 50 48 47 47 48 48 49 50 50 51 50 50 49 47 45 43 42 41 40 38 37 36 34 33 33 31 30 30 30 29 28 26 25 25 24 24 24 23 23 23 23 22 21 20 19 18 19 18 17
29 31 30 34 40 45 49 52 54 55 57 57 56 54 52 49 48 48 48 48 49 49 48 49 50 50 50 49 47 45 43 41 40 40 39 38 36 35 34 33 31 30 30 30 29 28 26 25 25 25 25 24 24 24 24 23 22 21 20 20 20 19 18
27 30 33 36 39 43 49 52 53 55 56 57 57 57 55 52 51 50 50 49 49 48 48 49 49 49 49 49 48 47 45 43 42 41 41 40 39 38 36 35 33 32 31 30 29 29 28 27 27 27 26 26 25 25 25 25 24 22 21 21 21 20 20
30 32 36 39 40 43 47 51 52 53 55 56 56 56 55 53 53 53 52 52 51 50 49 49 49 49 48 48 48 48 46 45 44 43 42 42 41 40 39 37 35 33 32 31 30 29 29 29 29 29 28 27 27 27 27 26 25 24 22 22 22 22 21
34 32 35 38 40 42 43 47 49 48 50 53 54 54 54 53 54 54 54 54 53 52 51 50 49 49 47 46 47 46 45 44 43 42 42 42 42 42 41 39 37 35 34 33 31 30 30 30 31 31 30 30 29 29 28 27 27 26 24 23 23 23 23
32 30 31 32 33 34 33 38 43 44 46 50 52 53 53 53 54 55 55 55 55 54 53 52 51 50 48 46 46 45 44 43 43 42 42 42 43 43 42 40 38 36 35 34 33 31 31 31 31 32 32 32 31 31 30 29 28 28 27 25 24 24 25
30 29 28 25 25 28 29 33 38 41 45 48 50 51 52 53 55 55 55 55 56 55 54 53 53 52 50 48 47 46 45 45 44 43 43 44 44 43 42 41 39 37 36 35 34 33 32 31 32 33 34 34 33 33 32 31 30 30 29 27 26 26 26
26 26 25 24 25 27 28 31 35 40 44 46 48 50 51 53 55 55 55 56 55 54 54 54 54 54 52 50 49 49 48 47 46 46 46 45 45 43 42 41 40 39 37 36 36 35 33 32 34 35 36 36 36 35 34 33 32 31 30 29 27 27 27
21 20 20 23 26 26 27 30 33 38 42 45 47 49 51 52 53 54 55 55 55 54 54 54 54 54 53 52 51 51 50 49 48 48 48 47 46 44 42 41 41 40 38 37 37 36 34 34 35 37 38 38 37 37 36 35 34 32 31 30 29 28 28
18 17 18 19 22 24 26 29 32 36 40 43 46 49 50 51 52 53 54 54 54 53 53 54 54 54 54 52 52 52 51 50 50 49 49 48 46 45 43 42 42 41 39 38 38 38 36 35 36 39 40 39 39 38 37 36 36 34 32 31 31 30 29
14 14 15 16 18 22 25 29 32 34 37 40 44 46 48 50 51 52 52 53 52 53 53 53 53 54 53 52 52 52 51 51 50 49 49 49 47 46 45 44 42 42 40 39 40 40 38 36 37 39 40 40 40 39 39 38 38 36 34 33 32 32 31
11 11 12 14 16 20 23 26 29 32 34 37 40 44 46 48 49 50 51 51 52 52 53 53 53 53 52 52 52 52 51 51 51 50 50 50 49 48 47 46 44 42 42 41 41 41 40 38 37 38 40 41 41 41 41 40 40 39 37 35 34 33 33
10 12 16 17 17 19 21 22 24 28 32 34 38 41 44 46 48 49 49 50 51 52 52 53 53 51 51 52 52 51 51 51 51 51 51 51 50 49 48 47 45 44 43 42 41 42 42 40 39 39 40 41 42 42 43 43 43 41 38 36 35 35 34
18 21 24 23 19 17 18 19 21 24 28 33 36 39 42 44 46 47 48 49 50 50 51 52 52 51 51 52 52 51 51 50 51 52 52 51 51 50 49 47 46 45 45 43 42 43 43 42 41 40 39 40 42 43 45 45 44 42 39 37 36 36 36
24 27 29 27 22 18 18 18 18 20 23 28 33 37 40 42 44 46 47 48 48 48 50 51 51 51 51 51 51 51 50 50 52 52 51 51 51 50 49 48 47 46 45 44 43 43 44 43 43 41 40 41 42 44 46 47 45 43 40 38 37 37 37
27 30 30 29 26 23 21 19 18 18 20 24 29 33 36 39 43 45 45 46 46 48 50 51 50 50 50 51 51 51 50 51 52 52 52 51 51 50 49 49 49 48 47 45 44 44 44 44 43 42 42 42 43 44 46 47 46 44 42 39 38 38 38
29 29 28 26 26 25 24 21 20 19 18 20 24 29 33 37 39 40 42 44 46 47 49 49 49 49 50 51 51 51 51 51 51 52 52 52 50 50 50 50 49 48 47 46 45 45 46 45 44 44 43 43 43 43 45 47 47 45 43 41 39 39 38
26 25 23 24 25 26 26 24 23 23 20 17 20 26 31 34 36 38 41 44 45 45 46 47 49 49 50 51 51 50 51 51 51 51 51 51 50 50 50 50 49 48 48 48 47 47 46 45 45 45 45 44 43 43 44 46 47 46 44 42 41 40 38
22 22 22 24 25 26 27 26 25 25 21 16 16 23 28 30 33 37 40 42 43 44 45 46 47 47 49 51 51 50 51 50 50 50 50 49 49 50 50 50 50 49 49 48 47 47 46 46 46 47 46 45 44 44 45 45 45 45 44 43 41 40 39
21 22 22 23 24 26 26 25 24 23 20 15 15 20 23 27 31 36 39 41 41 42 43 45 46 46 48 49 50 50 50 49 49 49 49 49 49 50 50 50 50 49 48 48 48 48 48 48 48 48 47 47 45 45 45 45 45 45 44 43 42 41 41
19 20 20 21 23 25 25 23 21 19 16 14 14 15 19 23 28 33 36 39 40 40 42 44 44 44 46 48 48 48 47 47 47 47 48 49 49 49 49 49 49 48 47 47 48 48 48 48 49 48 48 48 47 46 45 45 44 43 44 43 42 41 42
15 16 17 18 20 21 20 18 16 14 12 11 10 11 15 19 23 28 32 34 37 39 41 41 41 41 44 46 44 43 42 43 45 46 48 48 48 48 48 48 47 47 47 47 48 48 47 48 49 49 49 48 48 47 46 45 44 43 44 43 42 42 41
10 10 11 12 13 13 13 11 10 9 8 8 8 9 12 15 19 24 28 31 34 37 37 36 37 40 42 42 40 40 40 41 44 46 46 46 45 46 46 46 45 45 46 47 49 49 49 49 49 48 48 49 49 48 47 46 44 44 44 43 42 42 41
9 8 7 6 6 6 8 8 8 8 8 8 9 10 11 13 16 20 23 27 31 33 33 33 35 37 38 38 39 40 41 42 43 44 44 44 44 44 44 44 44 45 46 47 49 51 52 53 52 48 48 49 49 48 48 47 45 44 44 43 43 42 41
10 10 10 9 7 6 7 8 9 10 10 10 10 11 12 11 12 14 18 22 25 26 27 28 30 32 34 35 37 39 39 40 41 42 42 42 43 44 44 44 44 46 48 48 49 50 50 50 49 47 48 51 50 48 48 47 44 44 44 43 43 43 41
10 12 13 14 12 10 9 9 9 9 9 10 10 11 12 12 11 11 14 17 19 21 22 23 24 27 29 31 33 34 36 37 38 39 40 40 41 42 44 44 45 47 48 48 50 51 48 46 45 41 42 49 51 49 48 47 44 44 45 44 43 43 41
6 10 14 16 16 15 14 13 12 11 10 9 9 10 11 12 11 12 13 15 17 18 20 21 23 25 26 28 30 31 34 35 36 38 39 40 40 41 43 45 46 46 48 48 49 50 48 46 43 40 39 44 46 44 44 46 46 45 46 46 44 43 41
3 7 12 15 16 17 17 16 16 15 13 12 11 10 10 10 10 11 12 13 14 15 16 17 20 22 24 25 26 28 31 33 34 36 37 38 39 40 42 44 45 46 48 48 48 49 47 44 46 49 49 48 46 44 44 47 49 49 48 47 45 43 40
3 5 8 11 14 15 16 17 16 15 15 15 13 12 11 9 8 8 8 9 10 11 11 13 15 18 20 21 22 24 26 29 31 33 34 36 37 39 41 43 45 46 47 47 48 49 50 49 50 52 53 54 54 51 47 46 47 49 49 47 45 44 41
5 6 6 8 10 11 13 15 14 14 15 14 13 13 11 10 9 7 6 6 6 7 8 9 10 12 14 16 18 20 22 24 26 28 30 32 34 37 39 41 43 45 46 47 48 49 52 53 50 47 50 55 53 50 48 49 50 51 51 49 47 46 43
7 6 6 6 8 10 13 14 13 13 13 12 12 11 10 9 9 7 7 6 5 6 6 7 8 9 10 12 14 16 18 21 22 24 27 30 31 34 37 40 42 44 46 47 48 49 51 51 49 48 51 52 46 43 48 55 56 56 56 52 49 49 47
9 8 7 7 8 11 14 15 14 13 13 13 13 11 10 9 8 7 6 6 5 6 6 7 8 9 10 11 13 15 17 18 20 22 25 28 30 32 35 37 38 39 41 44 46 49 50 50 50 50 50 49 46 48 54 60 60 60 59 54 51 50 48
13 12 10 9 10 14 16 17 16 15 15 15 15 13 11 10 8 7 6 5 5 5 6 7 8 10 11 12 13 15 16 17 18 20 22 25 28 30 33 35 36 36 38 40 42 45 48 50 51 52 51 51 54 57 60 61 61 61 59 55 52 49 47
17 17 15 14 14 16 18 19 18 17 17 17 16 14 12 11 10 8 7 6 5 5 5 6 8 9 10 11 12 13 14 14 15 16 17 19 22 25 28 31 33 35 39 42 43 46 48 49 51 52 53 55 58 60 61 60 61 60 57 53 51 48 46
20 20 20 19 19 19 19 19 19 18 17 16 14 13 12 12 11 10 9 9 8 6 5 4 4 6 7 8 8 9 9 9 8 9 11 12 13 16 18 20 23 25 28 32 36 40 44 49 52 55 56 57 59 61 62 61 61 61 57 49 46 47 48
Wind_Direction
205 207 209 208 211 216 220 223 226 228 229 229 228 228 227 228 229 230 231 230 230 230 230 229 229 228 227 227 226 227 227 228 229 230 231 233 235 236 237 238 238 239 238 236 234 233 236 239 241 242 244 247 249 248 245 244 245 248 250 251 253 254 255
204 208 209 208 210 217 221 222 223 226 228 229 230 229 227 228 229 230 231 232 231 231 231 230 230 230 229 228 228 228 229 230 231 231 232 233 234 236 237 238 238 240 240 238 234 233 234 237 240 242 244 246 248 248 245 242 242 245 247 247 248 250 250
205 208 208 209 213 219 222 222 223 224 226 228 228 229 229 230 231 231 231 232 232 231 232 232 232 232 231 231 231 231 231 232 234 234 234 233 234 236 237 238 237 238 239 237 234 232 232 234 237 240 242 245 247 246 245 243 241 242 245 245 245 245 245
213 213 210 213 217 220 221 222 223 224 225 227 228 228 229 230 232 232 231 232 232 232 232 233 233 233 233 233 233 233 233 233 235 236 236 236 236 237 238 238 237 236 237 235 232 231 230 231 234 237 240 243 244 244 243 243 241 241 242 241 241 242 241
219 217 212 213 216 218 220 222 224 224 224 225 227 228 229 230 231 232 232 233 233 234 234 233 234 233 234 234 234 234 234 234 235 236 236 237 237 238 239 239 238 236 235 234 232 231 230 231 232 234 237 240 242 242 241 241 241 240 239 239 238 239 240
220 217 216 218 217 219 221 222 223 224 224 225 226 228 229 229 229 230 232 233 233 234 235 234 235 235 235 235 235 235 235 235 235 236 237 238 238 238 239 239 239 238 237 236 234 232 231 232 233 233 235 238 240 240 239 240 241 239 237 237 236 237 239
226 221 222 223 221 221 222 222 222 223 225 225 226 228 228 226 227 229 230 232 233 233 234 234 235 236 237 236 236 236 236 236 236 237 237 238 238 238 238 239 239 239 239 238 237 234 233 233 233 234 234 236 237 238 238 238 239 238 236 236 236 236 238
233 229 228 228 226 224 223 222 221 219 222 224 224 226 227 224 226 228 228 231 233 232 233 235 235 236 237 237 237 238 237 237 237 237 238 238 239 238 238 238 239 239 239 239 238 237 234 233 233 234 234 234 235 236 236 236 237 238 236 236 236 237 238
238 236 234 231 228 225 221 220 220 217 219 224 224 225 227 225 226 228 229 230 231 232 233 235 235 236 238 238 238 239 239 238 238 238 238 238 239 239 239 239 239 239 239 239 239 237 235 233 233 233 233 234 234 234 234 235 235 236 235 235 236 236 237
244 244 241 236 233 230 225 223 223 220 220 224 224 224 225 226 227 228 229 230 231 232 234 234 234 236 237 237 238 239 239 239 239 239 238 238 238 238 239 239 239 238 237 237 238 237 235 233 232 233 233 233 233 233 233 233 233 234 235 235 235 236 237
250 248 245 243 240 237 232 228 225 223 222 223 223 222 222 225 227 228 229 230 231 233 234 233 233 235 237 237 236 237 239 239 239 239 239 238 238 238 238 238 238 238 237 236 237 236 234 232 231 232 232 232 232 231 231 232 232 234 234 234 235 236 237
260 258 254 249 244 240 236 232 227 225 224 222 221 222 221 223 225 227 229 231 232 233 233 233 233 234 236 236 235 236 238 239 239 239 239 238 238 238 238 238 238 238 237 236 236 237 235 232 231 231 230 230 230 230 231 231 232 233 234 234 235 236 237
266 266 263 256 249 245 240 235 232 229 227 224 223 223 223 222 224 226 228 231 232 232 232 233 233 234 235 235 234 235 237 238 239 239 239 239 239 239 239 238 238 238 238 236 236 237 236 233 231 231 230 230 230 230 231 231 232 233 233 234 235 236 237
269 271 272 266 257 250 244 239 237 234 230 227 225 225 225 224 225 226 228 231 232 231 231 233 234 234 235 235 234 235 237 238 239 240 240 240 240 240 239 239 238 238 238 237 237 237 236 234 233 232 231 231 230 231 231 232 232 232 232 233 234 235 236
253 265 276 274 268 260 252 247 243 238 234 230 227 225 225 225 226 226 228 230 231 230 231 233 234 235 235 235 235 237 238 237 237 239 240 240 240 240 239 239 239 238 238 238 237 237 237 236 235 235 233 232 232 231 232 232 232 232 231 231 233 235 236
261 281 288 288 288 278 264 256 250 244 238 232 229 227 225 225 226 226 227 228 229 231 231 233 235 236 234 235 237 238 237 237 237 238 239 239 239 239 239 239 239 238 238 238 237 237 238 237 236 236 236 235 233 232 233 233 232 232 231 230 232 235 237
285 289 287 286 288 286 277 266 255 247 241 236 233 230 227 227 226 227 227 227 229 231 231 232 235 235 233 235 237 236 236 236 236 237 238 238 238 238 238 239 239 238 237 237 237 238 238 238 237 236 237 237 235 234 234 234 233 232 231 230 231 235 237
281 282 281 279 277 278 281 277 266 255 249 244 238 233 231 229 226 226 226 227 230 231 230 231 233 233 234 236 236 235 234 235 235 236 237 237 236 236 237 238 238 238 237 237 236 237 238 238 238 237 237 238 237 236 235 235 234 233 232 231 231 235 238
270 273 275 275 274 273 272 273 272 267 259 252 245 239 236 232 228 228 229 229 230 229 228 230 233 234 234 234 234 234 233 233 234 235 236 236 236 236 236 237 237 238 238 237 237 237 238 239 239 238 238 238 238 238 237 237 236 235 234 232 232 235 238
263 265 267 270 273 273 270 268 270 272 267 258 252 247 239 234 234 235 234 231 229 228 228 230 233 234 234 233 233 233 232 233 234 234 235 235 235 236 236 237 237 238 239 238 237 237 238 238 239 239 239 239 239 239 239 238 237 236 235 234 233 234 237
257 259 261 265 269 272 272 271 272 275 274 265 254 248 241 235 235 236 234 231 231 231 230 231 233 234 234 232 232 231 230 231 232 233 233 234 234 235 236 237 238 238 238 238 238 238 238 238 239 240 240 240 241 241 240 239 238 237 236 235 234 235 237
254 256 258 262 266 270 272 273 273 273 274 267 249 244 241 237 233 231 231 231 231 231 231 231 232 232 231 230 231 231 230 230 230 231 232 233 234 235 236 238 239 238 238 238 238 239 239 238 239 240 241 241 242 242 243 241 239 238 237 236 235 236 237
253 256 258 260 264 268 272 274 274 272 272 264 242 235 238 236 231 229 228 229 230 231 231 230 231 232 232 231 231 231 231 231 231 233 234 234 235 236 238 239 239 239 238 239 238 239 239 238 238 239 241 242 242 243 244 244 243 240 239 238 237 237 237
253 255 258 259 262 267 272 275 274 272 271 263 242 231 234 235 231 229 228 229 230 230 230 230 232 234 234 231 230 232 234 235 236 236 237 236 237 238 239 240 240 240 240 239 239 239 239 239 239 239 240 242 242 243 244 246 246 244 242 241 239 238 238
248 251 255 258 262 267 270 273 271 267 262 252 236 230 233 232 229 228 228 229 229 229 229 232 235 236 234 232 234 236 238 239 238 237 236 238 239 239 240 240 241 241 240 239 239 239 239 238 239 240 241 241 243 244 244 246 247 246 246 245 242 241 241
224 232 243 251 257 261 263 261 256 247 235 220 207 211 222 228 229 229 228 228 227 228 231 234 236 235 235 236 238 238 238 239 238 236 237 240 241 241 241 242 242 242 241 240 240 239 238 237 238 239 240 240 242 243 244 244 246 246 247 247 245 244 243
184 184 189 202 218 230 231 227 217 209 203 190 182 187 198 214 225 228 227 228 228 231 235 236 236 235 236 237 236 236 236 237 238 239 240 242 242 241 242 244 243 241 240 240 240 239 238 238 238 237 237 238 240 242 243 244 244 246 247 248 247 246 245
141 140 141 141 145 160 181 188 187 190 188 176 172 175 177 189 209 220 224 228 232 236 239 239 238 237 237 237 237 237 237 238 240 241 242 242 242 242 243 243 242 241 239 239 239 238 238 239 238 237 238 239 239 240 243 243 243 244 246 247 247 246 245
123 126 125 123 123 127 138 153 160 167 170 166 168 171 168 172 189 208 220 227 232 236 239 240 240 239 238 239 239 240 241 241 242 243 242 243 243 242 242 242 241 240 240 239 238 238 238 239 238 238 239 240 240 241 242 242 241 242 243 244 244 244 244
107 117 119 118 117 116 119 123 125 128 137 145 153 161 161 165 178 196 212 222 227 232 235 237 239 240 241 242 242 243 244 243 243 243 243 244 244 242 241 242 241 240 240 241 240 240 240 240 238 238 239 240 240 241 241 240 240 240 241 241 241 241 240
69 106 114 116 117 118 117 116 114 116 119 121 125 134 140 150 168 185 203 216 224 232 237 238 239 240 242 245 246 247 247 246 246 245 246 246 245 243 242 242 242 241 241 241 241 239 239 239 240 241 242 242 240 240 242 243 240 238 239 239 239 239 238
56 89 105 114 119 121 120 119 118 118 116 114 113 113 116 125 144 165 189 206 218 228 235 239 240 241 241 244 248 250 250 250 249 249 250 249 247 246 245 244 244 244 244 243 242 240 240 242 242 242 243 243 241 240 241 241 240 239 239 238 236 236 234
64 68 81 102 111 116 120 121 119 116 115 113 110 107 109 115 122 136 159 182 200 214 223 231 236 239 240 241 244 248 250 252 253 253 253 252 251 249 247 246 246 246 246 244 243 242 242 242 240 240 242 244 242 240 238 239 239 240 241 239 236 233 229
76 68 65 76 89 100 108 109 107 107 108 105 102 100 102 106 110 120 135 150 168 183 197 209 216 225 231 233 237 242 244 247 250 250 251 253 254 252 250 250 249 248 249 250 249 247 246 243 241 241 243 242 240 237 237 239 240 240 240 238 235 231 225
81 75 65 61 69 81 89 93 94 95 94 91 88 87 89 93 99 107 119 133 146 155 168 181 191 203 215 222 228 233 237 241 245 246 247 249 250 250 249 250 249 249 251 254 254 252 251 249 247 248 248 246 243 242 242 242 244 247 246 241 235 230 223
80 76 69 63 66 72 77 80 81 82 83 83 83 85 88 89 91 96 103 116 132 145 160 172 181 193 204 212 220 225 229 234 239 243 246 248 248 249 249 249 248 247 248 251 251 250 250 249 249 251 252 252 252 254 253 253 256 257 252 244 239 234 223
79 75 68 61 62 65 69 72 73 73 75 76 78 83 84 82 83 88 90 95 105 121 144 163 178 188 196 205 213 218 224 231 237 242 247 250 251 252 253 253 252 250 249 251 252 251 251 251 251 252 253 252 253 256 258 259 259 256 248 243 243 238 227
76 72 66 60 57 58 60 63 64 64 67 70 74 76 75 73 75 77 79 82 82 81 89 114 151 170 179 192 201 207 217 226 234 244 251 255 261 263 264 266 267 265 262 261 260 260 259 257 256 255 254 253 252 253 254 254 253 251 246 242 240 237 230
Height
1441 1444 1446 1448 1450 1452 1455 1458 1462 1465 1468 1471 1474 1477 1481 1484 1487 1489 1491 1494 1498 1501 1504 1507 1510 1512 1515 1518 1521 1523 1525 1528 1530 1532 1534 1536 1539 1541 1543 1546 1548 1550 1552 1554 1556 1558 1559 1561 1562 1563 1564 1565 1566 1567 1568 1569 1569 1570 1571 1572 1572 1572 1573
1437 1439 1440 1444 1445 1447 1449 1453 1457 1460 1464 1467 1470 1473 1476 1479 1481 1484 1487 1490 1493 1497 1500 1503 1506 1508 1511 1514 1517 1520 1522 1525 1527 1529 1531 1533 1536 1538 1540 1542 1545 1547 1549 1551 1553 1555 1557 1558 1559 1561 1562 1563 1564 1564 1565 1566 1567 1568 1569 1569 1570 1570 1571
1432 1433 1435 1437 1438 1440 1443 1447 1452 1455 1458 1462 1465 1468 1471 1473 1476 1479 1482 1486 1489 1493 1496 1499 1502 1504 1508 1511 1513 1516 1519 1521 1523 1526 1528 1530 1532 1535 1537 1539 1542 1544 1546 1548 1550 1552 1554 1555 1556 1558 1559 1560 1561 1562 1563 1564 1565 1566 1566 1567 1568 1568 1569
1426 1427 1429 1432 1432 1436 1440 1444 1448 1450 1453 1456 1459 1462 1465 1468 1471 1475 1478 1481 1485 1488 1491 1493 1497 1500 1504 1506 1510 1513 1515 1518 1520 1522 1525 1527 1530 1532 1534 1536 1539 1541 1543 1545 1547 1549 1550 1552 1553 1555 1556 1557 1558 1559 1560 1561 1562 1563 1564 1565 1565 1566 1567
1421 1423 1427 1428 1429 1433 1436 1439 1442 1444 1448 1451 1454 1458 1460 1464 1468 1471 1474 1477 1480 1483 1486 1490 1493 1496 1499 1502 1506 1509 1511 1514 1517 1519 1522 1524 1527 1529 1530 1533 1535 1538 1540 1542 1544 1546 1547 1549 1550 1551 1553 1554 1555 1556 1557 1558 1560 1561 1562 1562 1563 1564 1565
1416 1419 1421 1423 1425 1427 1429 1432 1435 1438 1442 1445 1449 1452 1456 1461 1464 1467 1470 1473 1476 1479 1482 1486 1489 1492 1494 1498 1501 1504 1507 1510 1513 1516 1518 1520 1523 1525 1527 1529 1532 1534 1536 1538 1541 1542 1544 1546 1547 1548 1550 1551 1552 1553 1554 1556 1557 1558 1559 1560 1560 1561 1563
1411 1413 1415 1417 1419 1421 1423 1426 1429 1433 1437 1441 1445 1448 1452 1457 1460 1462 1466 1468 1472 1475 1478 1481 1484 1486 1489 1493 1496 1499 1502 1506 1508 1511 1514 1516 1519 1521 1523 1526 1528 1531 1533 1535 1537 1539 1541 1542 1544 1545 1546 1547 1549 1550 1551 1552 1554 1555 1556 1557 1558 1559 1560
1409 1409 1411 1412 1414 1417 1419 1422 1426 1431 1435 1439 1443 1445 1448 1452 1455 1458 1461 1464 1467 1470 1473 1476 1479 1481 1484 1488 1491 1494 1497 1501 1504 1506 1509 1511 1513 1516 1519 1522 1524 1527 1529 1531 1533 1535 1537 1539 1540 1542 1543 1544 1545 1546 1548 1549 1551 1552 1553 1554 1555 1556 1557
1407 1408 1409 1411 1413 1416 1419 1421 1425 1430 1433 1436 1439 1441 1444 1447 1450 1452 1455 1458 1462 1465 1468 1471 1474 1477 1480 1483 1486 1489 1493 1496 1498 1501 1504 1506 1509 1511 1514 1517 1520 1523 1524 1526 1529 1530 1533 1534 1536 1537 1539 1540 1541 1542 1544 1546 1547 1549 1550 1551 1552 1553 1554
1405 1407 1409 1411 1413 1415 1418 1420 1423 1427 1429 1430 1433 1436 1440 1442 1445 1447 1450 1454 1457 1460 1463 1466 1470 1473 1475 1478 1482 1485 1488 1491 1493 1496 1498 1501 1504 1507 1510 1513 1515 1518 1519 1522 1524 1525 1528 1530 1531 1533 1534 1535 1536 1538 1540 1542 1543 1545 1546 1548 1549 1550 1551
1403 1405 1407 1409 1411 1412 1415 1416 1418 1421 1422 1424 1427 1431 1434 1436 1439 1442 1445 1448 1451 1454 1458 1462 1465 1468 1470 1474 1478 1480 1483 1485 1488 1491 1493 1496 1499 1502 1505 1508 1510 1512 1514 1517 1518 1520 1523 1525 1526 1527 1528 1530 1532 1533 1535 1537 1539 1541 1543 1544 1546 1547 1548
1401 1402 1404 1406 1407 1409 1411 1412 1414 1415 1417 1419 1422 1425 1428 1431 1434 1437 1440 1443 1446 1449 1453 1456 1460 1463 1465 1469 1472 1475 1477 1480 1482 1485 1487 1491 1494 1497 1500 1503 1505 1507 1509 1512 1513 1515 1517 1520 1521 1522 1523 1525 1527 1529 1531 1533 1535 1537 1539 1541 1542 1543 1545
1400 1400 1402 1403 1405 1407 1408 1409 1410 1410 1412 1414 1417 1419 1423 1426 1429 1432 1435 1437 1441 1445 1448 1452 1455 1457 1460 1463 1467 1469 1471 1474 1476 1479 1482 1485 1488 1492 1495 1498 1500 1502 1504 1507 1508 1510 1512 1514 1515 1516 1518 1520 1522 1525 1527 1529 1531 1533 1535 1537 1539 1540 1541
1399 1399 1400 1401 1403 1403 1404 1405 1405 1406 1408 1411 1413 1415 1418 1421 1424 1427 1430 1433 1436 1440 1444 1446 1449 1451 1454 1458 1461 1463 1465 1468 1471 1474 1477 1480 1483 1487 1489 1492 1495 1497 1499 1501 1503 1504 1507 1509 1511 1512 1514 1516 1518 1520 1523 1524 1526 1528 1530 1533 1535 1536 1538
1397 1398 1398 1399 1400 1400 1400 1401 1402 1403 1405 1407 1410 1413 1415 1418 1420 1423 1426 1429 1432 1436 1438 1441 1443 1446 1449 1453 1454 1456 1459 1463 1467 1469 1472 1475 1478 1481 1484 1487 1490 1492 1494 1496 1497 1499 1501 1504 1507 1508 1510 1512 1514 1516 1518 1519 1521 1523 1525 1528 1530 1532 1534
1395 1396 1397 1397 1398 1398 1398 1398 1399 1400 1402 1405 1407 1409 1411 1413 1415 1418 1421 1423 1427 1430 1433 1436 1438 1441 1445 1446 1447 1450 1455 1459 1462 1464 1466 1469 1472 1475 1479 1482 1485 1487 1489 1491 1493 1495 1497 1500 1502 1504 1506 1508 1510 1512 1513 1514 1515 1517 1521 1524 1526 1528 1530
1394 1395 1395 1395 1396 1396 1396 1396 1397 1398 1399 1401 1402 1403 1406 1408 1410 1413 1416 1419 1422 1424 1428 1430 1433 1436 1439 1440 1441 1446 1451 1454 1457 1459 1461 1464 1467 1470 1473 1477 1479 1482 1484 1486 1488 1491 1492 1495 1497 1500 1502 1504 1506 1507 1508 1509 1510 1513 1517 1520 1522 1524 1525
1392 1393 1393 1393 1394 1394 1394 1394 1394 1395 1396 1397 1398 1400 1402 1403 1406 1409 1411 1414 1416 1419 1422 1425 1428 1431 1433 1434 1438 1443 1446 1449 1452 1454 1456 1459 1462 1465 1468 1472 1474 1476 1479 1481 1483 1486 1488 1490 1492 1495 1498 1499 1501 1503 1503 1504 1506 1509 1512 1515 1518 1519 1521
1390 1391 1390 1390 1391 1392 1392 1392 1392 1392 1393 1394 1395 1396 1398 1400 1403 1405 1406 1409 1412 1415 1419 1421 1423 1426 1428 1431 1435 1438 1441 1444 1447 1449 1452 1454 1457 1461 1464 1467 1469 1471 1473 1476 1479 1481 1483 1485 1488 1491 1493 1495 1496 1498 1499 1500 1502 1505 1508 1511 1513 1515 1517
1387 1387 1387 1387 1387 1388 1389 1389 1389 1389 1390 1390 1391 1392 1395 1398 1400 1401 1404 1407 1410 1413 1415 1417 1419 1422 1424 1427 1431 1434 1437 1440 1442 1445 1448 1450 1454 1457 1459 1462 1464 1466 1469 1472 1474 1476 1478 1481 1483 1486 1488 1490 1491 1493 1494 1495 1497 1500 1503 1506 1508 1510 1513
1384 1385 1385 1385 1384 1385 1385 1386 1386 1386 1386 1387 1388 1389 1392 1394 1395 1398 1401 1404 1407 1409 1412 1414 1416 1418 1421 1424 1428 1431 1434 1436 1439 1442 1444 1447 1450 1453 1455 1457 1459 1462 1465 1467 1469 1471 1474 1476 1479 1480 1483 1485 1486 1488 1489 1490 1493 1495 1498 1501 1503 1506 1508
1382 1382 1382 1382 1382 1382 1382 1382 1382 1383 1383 1384 1385 1386 1387 1388 1391 1394 1397 1400 1403 1405 1408 1411 1414 1416 1419 1421 1424 1427 1430 1433 1436 1439 1441 1444 1447 1448 1450 1452 1454 1457 1460 1462 1465 1467 1469 1471 1474 1475 1477 1480 1481 1483 1483 1485 1488 1490 1493 1496 1498 1501 1503
1379 1379 1379 1379 1379 1378 1378 1379 1379 1379 1380 1380 1381 1381 1382 1385 1388 1391 1393 1396 1398 1401 1404 1407 1410 1412 1415 1417 1421 1424 1427 1430 1433 1435 1437 1440 1441 1443 1445 1447 1449 1452 1455 1457 1459 1461 1463 1465 1468 1470 1472 1474 1476 1477 1478 1480 1483 1485 1488 1491 1493 1496 1497
1376 1376 1376 1376 1376 1375 1375 1376 1376 1377 1377 1377 1378 1378 1380 1382 1385 1387 1390 1392 1394 1397 1400 1402 1404 1407 1410 1413 1416 1420 1423 1426 1428 1430 1431 1433 1434 1436 1438 1441 1443 1446 1449 1452 1453 1455 1458 1461 1463 1465 1466 1468 1469 1471 1473 1475 1478 1480 1483 1485 1488 1490 1491
1374 1375 1374 1374 1374 1374 1373 1374 1374 1374 1374 1375 1375 1376 1378 1380 1382 1384 1386 1388 1391 1394 1396 1397 1399 1402 1404 1407 1411 1415 1418 1421 1422 1424 1426 1427 1429 1432 1434 1436 1439 1442 1445 1447 1448 1450 1452 1455 1457 1459 1460 1462 1463 1466 1468 1470 1472 1475 1477 1479 1482 1485 1487
1373 1373 1372 1372 1372 1371 1371 1371 1372 1372 1372 1373 1373 1375 1377 1378 1379 1381 1383 1385 1388 1390 1391 1393 1395 1398 1401 1405 1408 1412 1414 1416 1418 1420 1422 1424 1426 1428 1430 1432 1435 1438 1440 1442 1444 1445 1447 1448 1449 1451 1453 1455 1457 1459 1461 1464 1466 1469 1471 1474 1477 1479 1481
1372 1372 1371 1371 1370 1370 1370 1370 1370 1371 1371 1372 1372 1373 1375 1376 1377 1379 1381 1383 1385 1387 1388 1391 1395 1398 1401 1404 1407 1409 1411 1413 1415 1417 1419 1421 1423 1425 1427 1429 1432 1434 1436 1438 1440 1442 1443 1444 1444 1445 1446 1448 1450 1452 1454 1457 1460 1463 1466 1469 1472 1474 1476
1372 1371 1370 1369 1369 1369 1369 1369 1369 1370 1371 1371 1371 1372 1373 1375 1376 1378 1381 1382 1384 1386 1389 1392 1394 1397 1400 1402 1404 1406 1408 1410 1412 1414 1417 1419 1421 1423 1424 1426 1429 1431 1432 1434 1436 1438 1439 1441 1442 1443 1442 1443 1444 1445 1447 1450 1453 1456 1459 1462 1465 1467 1470
1374 1372 1370 1369 1369 1369 1369 1369 1369 1369 1370 1370 1371 1372 1372 1374 1376 1378 1380 1382 1384 1386 1388 1390 1392 1394 1397 1398 1400 1402 1404 1406 1408 1410 1413 1415 1417 1419 1421 1423 1425 1427 1428 1431 1432 1434 1436 1437 1439 1441 1441 1440 1439 1439 1441 1443 1446 1448 1451 1454 1458 1460 1463
1376 1374 1372 1370 1369 1369 1370 1369 1369 1369 1370 1371 1372 1372 1372 1373 1375 1377 1379 1381 1383 1385 1386 1388 1390 1392 1394 1396 1397 1399 1401 1403 1405 1407 1409 1411 1413 1416 1418 1419 1421 1423 1425 1426 1429 1430 1431 1432 1434 1436 1437 1437 1438 1438 1437 1437 1439 1441 1443 1446 1450 1453 1456
1378 1376 1373 1372 1371 1370 1370 1370 1369 1370 1371 1371 1372 1372 1372 1373 1374 1376 1378 1379 1381 1383 1385 1387 1388 1390 1392 1394 1396 1398 1400 1402 1404 1405 1407 1409 1411 1413 1414 1416 1417 1418 1420 1421 1424 1426 1427 1427 1428 1428 1428 1429 1431 1432 1433 1433 1433 1434 1436 1439 1444 1447 1450
1377 1376 1374 1373 1372 1371 1371 1370 1370 1370 1370 1371 1372 1372 1372 1373 1374 1375 1377 1378 1380 1381 1383 1385 1386 1388 1390 1392 1394 1396 1398 1400 1402 1403 1405 1407 1408 1410 1411 1413 1414 1414 1415 1417 1418 1420 1420 1421 1421 1421 1420 1421 1422 1424 1426 1428 1428 1428 1430 1434 1438 1440 1444
1376 1376 1375 1374 1373 1373 1371 1370 1370 1370 1370 1370 1371 1371 1372 1373 1374 1376 1377 1378 1379 1380 1382 1383 1385 1387 1389 1390 1392 1394 1396 1398 1400 1401 1402 1404 1405 1406 1408 1409 1410 1411 1412 1413 1414 1414 1414 1414 1415 1416 1415 1415 1417 1419 1420 1421 1422 1422 1424 1428 1431 1433 1436
1375 1376 1376 1375 1374 1373 1371 1370 1369 1369 1369 1369 1370 1371 1373 1373 1375 1376 1376 1378 1379 1380 1381 1382 1383 1385 1386 1388 1390 1392 1393 1395 1397 1398 1399 1400 1401 1403 1404 1405 1406 1407 1407 1407 1408 1409 1409 1409 1410 1410 1410 1411 1413 1415 1414 1413 1413 1412 1413 1417 1420 1424 1428
1375 1376 1376 1376 1375 1373 1371 1369 1369 1368 1369 1369 1370 1372 1373 1374 1375 1375 1376 1377 1378 1378 1380 1381 1382 1383 1385 1386 1387 1389 1390 1392 1393 1394 1396 1397 1398 1400 1400 1402 1403 1404 1404 1404 1405 1405 1406 1406 1405 1405 1406 1407 1408 1408 1407 1405 1403 1403 1405 1408 1411 1414 1419
1374 1375 1376 1376 1375 1373 1371 1370 1369 1369 1369 1370 1371 1372 1373 1374 1374 1375 1376 1376 1377 1377 1378 1379 1380 1381 1382 1384 1385 1387 1387 1389 1390 1391 1392 1393 1394 1396 1396 1398 1400 1401 1400 1401 1402 1402 1403 1403 1403 1403 1404 1403 1402 1401 1399 1398 1398 1400 1403 1406 1408 1410 1413
1373 1373 1375 1376 1375 1374 1373 1371 1371 1370 1370 1371 1372 1372 1373 1374 1375 1375 1375 1376 1376 1377 1377 1378 1378 1379 1380 1381 1383 1384 1384 1386 1386 1387 1389 1390 1391 1392 1393 1394 1395 1396 1397 1397 1397 1397 1398 1398 1398 1398 1399 1398 1396 1395 1394 1395 1396 1398 1401 1405 1409 1412 1413
1371 1372 1373 1374 1375 1375 1373 1372 1371 1371 1372 1372 1373 1373 1374 1375 1375 1375 1376 1376 1376 1377 1377 1378 1378 1379 1379 1380 1381 1381 1382 1383 1384 1385 1386 1387 1387 1388 1389 1390 1391 1393 1394 1394 1394 1393 1393 1392 1392 1391 1391 1391 1390 1389 1388 1389 1390 1392 1395 1401 1406 1408 1412